Location: Newark
(39.0622°N, 106.5590°E)
Time: 09:29:07
(UTC+00:00)

Vanguard 2 - Visible Passes

Search period start: 29 January 2020 00:00
Search period end: 08 February 2020 00:00
Orbit: 553 x 2938 km, 32.9° (Epoch: 28 January)

Date Brightness Start Highest point End Pass type
(mag) Time Alt. Az. Time Alt. Az. Time Alt. Az.
29 Jan 12.3 22:28:01 10° SSE 22:34:51 13° SE 22:41:19 10° ESE visible
30 Jan 12.1 22:41:44 10° S 22:52:32 19° SE 23:02:25 10° ESE visible
31 Jan 12.0 22:57:06 10° S 23:10:14 26° SE 23:21:58 10° E visible
01 Feb 12.3 21:15:37 10° SE 21:17:35 10° SE 21:19:32 10° SE visible
01 Feb 11.8 23:13:14 10° SSW 23:27:55 33° SSE 23:40:50 10° E visible
02 Feb 12.0 21:26:09 10° SSE 21:35:06 16° SE 21:44:00 10° ESE visible
02 Feb 11.5 23:29:54 10° SSW 23:45:40 40° SSE 23:59:19 10° E visible
03 Feb 11.8 21:40:52 10° S 21:52:35 23° SE 22:04:18 10° E visible
04 Feb 11.7 21:56:39 10° SSW 22:10:07 29° SE 22:23:33 10° E visible
05 Feb 11.9 20:12:53 10° SSE 20:17:51 12° SE 20:22:59 10° ESE visible
05 Feb 11.4 22:13:03 10° SSW 22:27:42 37° SE 22:42:18 10° E visible
06 Feb 11.7 20:25:55 10° S 20:35:10 18° SE 20:45:08 10° E visible
06 Feb 11.2 22:29:53 10° SW 22:45:20 44° SSE 23:00:44 10° E visible
07 Feb 11.5 20:41:07 10° S 20:52:30 24° SE 21:05:04 10° E visible
07 Feb 11.1 22:47:02 10° SW 23:03:05 51° SSE 23:18:58 10° E visible
